IW1QLH-11 Weather Reports


time (UTC)temp
C
wind
direction
speed
KPH
gust
KPH
rain 1hr
cm
rain 24hr
cm
rain mn
cm
humidity
%
barometer
mb
20260508014501 -17 3.2 6.4 0.00 0.00 0.00 1005.1
20260508013002 -17 3.2 4.8 0.00 0.00 0.00 1005.2
20260508011502 -17 1.6 4.8 0.00 0.00 0.00 1005.3
20260508010002 -17 3.2 6.4 0.00 0.00 0.00 1005.4
20260508004501 -17 0.0 3.2 0.00 0.00 0.00 1005.8
20260508003001 -17 0.0 1.6 0.00 0.00 0.00 1005.8
20260508001501 -17 0.0 0.0 0.00 0.00 0.00 1006.0
20260508000001 -17 0.0 0.0 0.00 0.00 0.00 1006.3
20260507234502 -17 0.0 1.6 0.00 0.00 0.00 1006.4
20260507233002 -17 0.0 0.0 0.00 0.00 0.00 1006.3
20260507231501 -17 0.0 1.6 0.00 0.00 0.00 1006.5
20260507230001 -17 0.0 1.6 0.00 0.00 0.00 1006.5
20260507224501 -17 0.0 1.6 0.00 0.00 0.00 1006.6
20260507223001 -17 0.0 1.6 0.00 0.00 0.00 1006.6
20260507221503 -17 0.0 1.6 0.00 0.00 0.00 1006.7
20260507214709 -17 0.0 0.0 0.00 0.00 0.00 1006.6
20260507213208 -17 0.0 0.0 0.00 0.00 0.00 1006.4
20260507211709 -17 0.0 0.0 0.00 0.00 0.00 1006.3
20260507210209 -17 0.0 1.6 0.00 0.00 0.00 1006.3
20260507204709 -17 0.0 1.6 0.00 0.00 0.00 1006.3
20260507203209 -17 0.0 0.0 0.00 0.00 0.00 1006.3
20260507201709 -17 0.0 0.0 0.00 0.00 0.00 1006.3
20260507200209 -17 0.0 0.0 0.00 0.00 0.00 1006.3
20260507194709 -17 0.0 0.0 0.00 0.00 0.00 1006.1
20260507193209 -17 0.0 0.0 0.00 0.00 0.00 1005.9
20260507191709 -17 0.0 1.6 0.00 0.00 0.00 1005.8
20260507190208 -17 0.0 1.6 0.00 0.00 0.00 1005.8
20260507184709 -17 1.6 1.6 0.00 0.00 0.00 1005.7
20260507183209 -17 1.6 1.6 0.00 0.00 0.00 1005.5
20260507181709 -17 0.0 1.6 0.00 0.00 0.00 1005.4
20260507180208 -17 0.0 1.6 0.00 0.00 0.00 1005.5
20260507174709 -17 0.0 1.6 0.00 0.00 0.00 1005.2
20260507173209 -17 0.0 4.8 0.00 0.00 0.00 1005.2
20260507171709 -17 0.0 6.4 0.00 0.00 0.00 1005.4
20260507170209 -17 0.0 9.7 0.00 0.00 0.00 1005.6
20260507164709 -17 1.6 4.8 0.00 0.00 0.00 1005.5
20260507163209 -17 1.6 6.4 0.00 0.00 0.00 1005.5
20260507161709 -17 4.8 9.7 0.00 0.00 0.00 1005.5
20260507160210 -17 3.2 11.3 0.00 0.00 0.00 1005.4
20260507154709 -17 3.2 9.7 0.00 0.00 0.00 1005.4
20260507153209 -17 0.0 11.3 0.00 0.00 0.00 1005.5
20260507151709 -17 3.2 9.7 0.00 0.00 0.00 1005.4
20260507150209 -17 3.2 11.3 0.00 0.00 0.00 1005.5
20260507144709 -17 6.4 12.9 0.00 0.00 0.00 1005.4
20260507143211 -17 3.2 9.7 0.00 0.00 0.00 1005.5
20260507141709 -17 3.2 14.5 0.00 0.00 0.00 1005.6
20260507140209 -17 6.4 12.9 0.00 0.00 0.00 1005.6
20260507134709 -17 6.4 11.3 0.00 0.00 0.00 1005.7
20260507133209 -17 11.3 16.1 0.00 0.00 0.00 1006.0
20260507131709 -17 6.4 12.9 0.00 0.00 0.00 1006.1
20260507130209 -17 6.4 11.3 0.00 0.00 0.00 1006.0
20260507124709 -17 6.4 11.3 0.00 0.00 0.00 1005.9
20260507123209 -17 3.2 11.3 0.00 0.00 0.00 1005.8
20260507121709 -17 6.4 11.3 0.00 0.00 0.00 1005.6
20260507120209 -17 6.4 9.7 0.00 0.00 0.00 1005.5
20260507114709 -17 1.6 12.9 0.00 0.00 0.00 1005.6
20260507113209 -17 3.2 9.7 0.00 0.00 0.00 1005.6
20260507111709 -17 3.2 11.3 0.00 0.00 0.00 1006.0
20260507110209 -17 1.6 6.4 0.00 0.00 0.00 1005.9
20260507104709 -17 1.6 8.0 0.00 0.00 0.00 1006.0
20260507103209 -17 1.6 6.4 0.00 0.00 0.00 1005.8
20260507101709 -17 1.6 6.4 0.00 0.00 0.00 1005.9
20260507100209 -17 3.2 9.7 0.00 0.00 0.00 1005.9
20260507094709 -17 8.0 12.9 0.00 0.00 0.00 1005.8
20260507093210 -17 4.8 16.1 0.00 0.00 0.00 1005.8
20260507091709 -17 3.2 9.7 0.00 0.00 0.00 1005.6
20260507090209 -17 6.4 14.5 0.00 0.00 0.00 1005.4
20260507084709 -17 0.0 9.7 0.00 0.00 0.00 1005.1
20260507083210 -17 3.2 12.9 0.00 0.00 0.00 1005.0
20260507081709 -17 4.8 12.9 0.00 0.00 0.00 1004.9
20260507080209 -17 4.8 9.7 0.00 0.00 0.00 1004.9
20260507074709 -17 4.8 8.0 0.00 0.00 0.00 1004.9
20260507073208 -17 3.2 4.8 0.00 0.00 0.00 1004.9
20260507071709 -17 0.0 1.6 0.00 0.00 0.00 1004.9
20260507070208 -17 0.0 0.0 0.00 0.00 0.00 1004.6
20260507064709 -17 0.0 1.6 0.00 0.00 0.00 1004.6
20260507063210 -17 0.0 1.6 0.00 0.00 0.00 1004.5
20260507061708 -17 0.0 0.0 0.00 0.00 0.00 1004.2
20260507060210 -17 0.0 0.0 0.00 0.00 0.00 1004.1
20260507054709 -17 0.0 0.0 0.00 0.00 0.00 1004.0
20260507053210 -17 0.0 0.0 0.00 0.00 0.00 1004.0
20260507051708 -17 0.0 0.0 0.00 0.00 0.00 1003.9
20260507050209 -17 0.0 0.0 0.00 0.00 0.00 1003.6
20260507044708 -17 0.0 0.0 0.00 0.00 0.00 1003.4
20260507043209 -17 0.0 0.0 0.00 0.00 0.00 1003.5
20260507041709 -17 0.0 0.0 0.00 0.00 0.00 1003.5
20260507040210 -17 0.0 1.6 0.00 0.00 0.00 1003.5
20260507034501 -17 0.0 0.0 0.00 0.00 0.00 1003.3
20260507033002 -17 0.0 0.0 0.00 0.00 0.00 1003.1
20260507031502 -17 0.0 1.6 0.00 0.00 0.00 1003.1
20260507030001 -17 0.0 0.0 0.00 0.00 0.00 1003.1
20260507024501 -17 0.0 0.0 0.00 0.00 0.00 1003.1
20260507023001 -17 0.0 0.0 0.00 0.00 0.00 1003.0
20260507021501 -17 0.0 1.6 0.00 0.00 0.00 1003.0
20260507020002 -17 0.0 3.2 0.00 0.00 0.00 1002.8